{"data":{"norad_id":66493,"intl_designator":"2025-263J","name":"STARLINK-35597","alt_names":[],"object_type":"PAYLOAD","status":"ACTIVE","operator":null,"country":"US","launch_date":"2025-11-15","launch_site_code":"AFETR","launch_vehicle":null,"mission":null,"orbit_class":"UNKNOWN","rcs_meters":null,"size_class":null,"mass_kg":null,"dimensions":null,"purposes":["comms"],"wikipedia_slug":null,"has_3d_model":false,"image_url":null,"decayed_at":null,"tle_current":{"epoch":"2026-05-24T18:51:48.987360Z","epoch_age_seconds":96848,"freshness":"FRESH","line1":"1 66493U 25263J   26144.78598365  .00007693  00000+0  28880-3 0  9997","line2":"2 66493  43.0002 281.2262 0003301 246.7950 113.2554 15.27578829 30538","mean_motion":15.27578829,"eccentricity":0.0003301,"inclination_deg":43.0002,"raan_deg":281.2262,"arg_perigee_deg":246.795,"mean_anomaly_deg":113.2554,"bstar":0.0002888,"rev_number":3053,"period_min":94.266820975954,"perigee_km":480.78772374939,"apogee_km":485.31748112492,"semimajor_km":6861.1896024372,"source":"CELESTRAK","updated_at":"2026-05-25T13:38:21.243385Z"}}}